INTELSAT 33E DEB, 61991

Orbit data source: Space-Track

INTELSAT 33E DEB, 61991 is space debris in GEO originally from a launch on Wed, 24 Aug 2016 UTC launched from the French Guiana (FRGUI). Debris objects in space refer to the collection of defunct objects orbiting the Earth. Examples of debris include non-operational satellites, rocket bodies, and fragments generated from explosions, collisions, or faulty payload assembly.

Not visible in the next 10 days
Identifier
61991, 2016-053H
Orbit
GEO
Country
Flag of USUS / ITSO
Related business
Manufacturer
Boeing/ES
Mission
Spacecraft
Bus & Motor
Unknown
Mass
Unknown
Launch date (UTC)
Icon of a cake. It is the launch day of the satellite!2016-08-24 (10 years ago)
Launch vehicle
Unknown
Launch site
French Guiana (FRGUI)
Object type
Payload
Rocket body
Debris
Shape & HBR
Unknown shape, 1.1 m
Radar Cross Section
Medium (>0.1 m² and <1 m²)

Expand to show TLE details & history
Last TLE update: 2 days ago

TLE from 2 days ago
0 INTELSAT 33E DEB
1 61991U 16053H   26234.26317640  .00000013  00000-0  00000-0 0  9991
2 61991   1.8288  89.8776 0115635 260.8354  98.0633  1.02041894  6867
Epoch: 2026-08-22T06:18Z
TLE epoch observation values (Epoch: 2026-08-22T06:18:58.440Z)
Latitude
Longitude
24.77211°
Altitude
35,371.976 km
Speed
3.087 km/s
True Right ascension
06h 00m 22s
True Declination
0° 00' 00"
Sunlit
Object was in daylight at epoch
Visualization orbit readout
Latitude
Unknown
Longitude
Unknown
Altitude
Unknown
Speed
Unknown
Apparent Right ascension
Unknown
Apparent Declination
Unknown
Sunlit
N/A
Visualization observer readout
Local Sidereal Time
15:55:36
Azimuth
Unknown
Elevation
Unknown
Doppler factor
Unknown
Orbital elements
Apogee altitude
35,780.567 km
Perigee altitude
34,816.708 km
Semi-major axis
41,676.774 km
Eccentricity
0.01156
Inclination
1.8288°
RAAN
89.8776°
Arg. of periapsis
260.8354°
True anomaly
99.37251°
Mean anomaly
98.0633°
Eccentric anomaly
98.71818°
Mean motion
0.2551 °/min
Orbital period
1,411.24 mins
BSTAR
0
Loading maneuver chart data...
Computing Atmospheric mass density...
Loading historical data...
Loading historical data...
Loading historical data...
Loading historical data...
Loading historical data...
Loading historical data...
Loading historical data...

Documentation

Showing up to 5 results
|